Year,Month,Day,Hour,Minute,Value (Times are PST for temperature in C)
2015,06,26,00,00,16.80
2015,06,26,00,01,16.80
2015,06,26,00,02,16.80
2015,06,26,00,03,16.80
2015,06,26,00,04,16.80
2015,06,26,00,05,16.80
2015,06,26,00,06,16.80
2015,06,26,00,07,16.80
2015,06,26,00,08,16.80
2015,06,26,00,09,16.70
2015,06,26,00,10,16.70
2015,06,26,00,11,16.70
2015,06,26,00,12,16.70
2015,06,26,00,13,16.70
2015,06,26,00,14,16.70
2015,06,26,00,15,16.70
2015,06,26,00,16,16.70
2015,06,26,00,17,16.70
2015,06,26,00,18,16.70
2015,06,26,00,19,16.70
2015,06,26,00,20,16.70
2015,06,26,00,21,16.70
2015,06,26,00,22,16.70
2015,06,26,00,23,16.70
2015,06,26,00,24,16.60
2015,06,26,00,25,16.60
2015,06,26,00,26,16.60
2015,06,26,00,27,16.60
2015,06,26,00,28,16.60
2015,06,26,00,29,16.60
2015,06,26,00,30,16.60
2015,06,26,00,31,16.60
2015,06,26,00,32,16.60
2015,06,26,00,33,16.60
2015,06,26,00,34,16.60
2015,06,26,00,35,16.60
2015,06,26,00,36,16.60
2015,06,26,00,37,16.70
2015,06,26,00,38,16.70
2015,06,26,00,39,16.70
2015,06,26,00,40,16.70
2015,06,26,00,41,16.70
2015,06,26,00,42,16.70
2015,06,26,00,43,16.70
2015,06,26,00,44,16.70
2015,06,26,00,45,16.60
2015,06,26,00,46,16.60
2015,06,26,00,47,16.60
2015,06,26,00,48,16.60
2015,06,26,00,49,16.60
2015,06,26,00,50,16.60
2015,06,26,00,51,16.50
2015,06,26,00,52,16.50
2015,06,26,00,53,16.50
2015,06,26,00,54,16.50
2015,06,26,00,55,16.50
2015,06,26,00,56,16.50
2015,06,26,00,57,16.50
2015,06,26,00,58,16.50
2015,06,26,00,59,16.40
2015,06,26,01,00,16.40
2015,06,26,01,01,16.40
2015,06,26,01,02,16.40
2015,06,26,01,03,16.40
2015,06,26,01,04,16.40
2015,06,26,01,05,16.40
2015,06,26,01,06,16.40
2015,06,26,01,07,16.40
2015,06,26,01,08,16.40
2015,06,26,01,09,16.40
2015,06,26,01,10,16.40
2015,06,26,01,11,16.40
2015,06,26,01,12,16.40
2015,06,26,01,13,16.40
2015,06,26,01,14,16.40
2015,06,26,01,15,16.30
2015,06,26,01,16,16.30
2015,06,26,01,17,16.30
2015,06,26,01,18,16.30
2015,06,26,01,19,16.30
2015,06,26,01,20,16.30
2015,06,26,01,21,16.30
2015,06,26,01,22,16.30
2015,06,26,01,23,16.30
2015,06,26,01,24,16.30
2015,06,26,01,25,16.30
2015,06,26,01,26,16.30
2015,06,26,01,27,16.30
2015,06,26,01,28,16.30
2015,06,26,01,29,16.20
2015,06,26,01,30,16.20
2015,06,26,01,31,16.20
2015,06,26,01,32,16.20
2015,06,26,01,33,16.20
2015,06,26,01,34,16.20
2015,06,26,01,35,16.20
2015,06,26,01,36,16.20
2015,06,26,01,37,16.20
2015,06,26,01,38,16.20
2015,06,26,01,39,16.20
2015,06,26,01,40,16.20
2015,06,26,01,41,16.20
2015,06,26,01,42,16.20
2015,06,26,01,43,16.20
2015,06,26,01,44,16.20
2015,06,26,01,45,16.10
2015,06,26,01,46,16.10
2015,06,26,01,47,16.10
2015,06,26,01,48,16.10
2015,06,26,01,49,16.10
2015,06,26,01,50,16.10
2015,06,26,01,51,16.10
2015,06,26,01,52,16.10
2015,06,26,01,53,16.10
2015,06,26,01,54,16.10
2015,06,26,01,55,16.10
2015,06,26,01,56,16.10
2015,06,26,01,57,16.10
2015,06,26,01,58,16.10
2015,06,26,01,59,16.10
2015,06,26,02,00,16.10
2015,06,26,02,01,16.10
2015,06,26,02,02,16.10
2015,06,26,02,03,16.10
2015,06,26,02,04,16.10
2015,06,26,02,05,16.10
2015,06,26,02,06,16.10
2015,06,26,02,07,16.10
2015,06,26,02,08,16.10
2015,06,26,02,09,16.10
2015,06,26,02,10,16.10
2015,06,26,02,11,16.10
2015,06,26,02,12,16.10
2015,06,26,02,13,16.10
2015,06,26,02,14,16.10
2015,06,26,02,15,16.10
2015,06,26,02,16,16.10
2015,06,26,02,17,16.10
2015,06,26,02,18,16.10
2015,06,26,02,19,16.10
2015,06,26,02,20,16.00
2015,06,26,02,21,16.00
2015,06,26,02,22,16.00
2015,06,26,02,23,16.00
2015,06,26,02,24,16.00
2015,06,26,02,25,16.00
2015,06,26,02,26,16.00
2015,06,26,02,27,16.00
2015,06,26,02,28,16.00
2015,06,26,02,29,16.00
2015,06,26,02,30,16.00
2015,06,26,02,31,16.00
2015,06,26,02,32,16.00
2015,06,26,02,33,15.90
2015,06,26,02,34,15.90
2015,06,26,02,35,15.90
2015,06,26,02,36,15.90
2015,06,26,02,37,15.90
2015,06,26,02,38,15.90
2015,06,26,02,39,15.90
2015,06,26,02,40,15.90
2015,06,26,02,41,15.90
2015,06,26,02,42,15.90
2015,06,26,02,43,15.90
2015,06,26,02,44,15.90
2015,06,26,02,45,15.90
2015,06,26,02,46,15.90
2015,06,26,02,47,15.90
2015,06,26,02,48,15.90
2015,06,26,02,49,15.90
2015,06,26,02,50,15.90
2015,06,26,02,51,15.90
2015,06,26,02,52,15.90
2015,06,26,02,53,15.90
2015,06,26,02,54,15.90
2015,06,26,02,55,15.90
2015,06,26,02,56,15.90
2015,06,26,02,57,15.90
2015,06,26,02,58,15.90
2015,06,26,02,59,15.90
2015,06,26,03,00,15.90
2015,06,26,03,01,15.90
2015,06,26,03,02,15.90
2015,06,26,03,03,15.90
2015,06,26,03,04,15.90
2015,06,26,03,05,15.90
2015,06,26,03,06,15.90
2015,06,26,03,07,16.00
2015,06,26,03,08,16.00
2015,06,26,03,09,16.00
2015,06,26,03,10,15.90
2015,06,26,03,11,15.90
2015,06,26,03,12,15.90
2015,06,26,03,13,15.90
2015,06,26,03,14,16.00
2015,06,26,03,15,16.00
2015,06,26,03,16,16.00
2015,06,26,03,17,15.90
2015,06,26,03,18,15.90
2015,06,26,03,19,15.90
2015,06,26,03,20,15.90
2015,06,26,03,21,15.90
2015,06,26,03,22,15.90
2015,06,26,03,23,15.90
2015,06,26,03,24,15.90
2015,06,26,03,25,15.90
2015,06,26,03,26,15.90
2015,06,26,03,27,15.80
2015,06,26,03,28,15.80
2015,06,26,03,29,15.80
2015,06,26,03,30,15.80
2015,06,26,03,31,15.80
2015,06,26,03,32,15.80
2015,06,26,03,33,15.80
2015,06,26,03,34,15.80
2015,06,26,03,35,15.80
2015,06,26,03,36,15.80
2015,06,26,03,37,15.80
2015,06,26,03,38,15.80
2015,06,26,03,39,15.90
2015,06,26,03,40,15.90
2015,06,26,03,41,16.00
2015,06,26,03,42,16.00
2015,06,26,03,43,16.10
2015,06,26,03,44,16.10
2015,06,26,03,45,16.20
2015,06,26,03,46,16.30
2015,06,26,03,47,16.30
2015,06,26,03,48,16.30
2015,06,26,03,49,16.40
2015,06,26,03,50,16.40
2015,06,26,03,51,16.50
2015,06,26,03,52,16.50
2015,06,26,03,53,16.60
2015,06,26,03,54,16.60
2015,06,26,03,55,16.60
2015,06,26,03,56,16.60
2015,06,26,03,57,16.60
2015,06,26,03,58,16.60
2015,06,26,03,59,16.50
2015,06,26,04,00,16.50
2015,06,26,04,01,16.50
2015,06,26,04,02,16.40
2015,06,26,04,03,16.40
2015,06,26,04,04,16.40
2015,06,26,04,05,16.30
2015,06,26,04,06,16.30
2015,06,26,04,07,16.30
2015,06,26,04,08,16.30
2015,06,26,04,09,16.30
2015,06,26,04,10,16.40
2015,06,26,04,11,16.40
2015,06,26,04,12,16.40
2015,06,26,04,13,16.40
2015,06,26,04,14,16.40
2015,06,26,04,15,16.40
2015,06,26,04,16,16.40
2015,06,26,04,17,16.50
2015,06,26,04,18,16.50
2015,06,26,04,19,16.50
2015,06,26,04,20,16.50
2015,06,26,04,21,16.50
2015,06,26,04,22,16.60
2015,06,26,04,23,16.60
2015,06,26,04,24,16.60
2015,06,26,04,25,16.60
2015,06,26,04,26,16.60
2015,06,26,04,27,16.60
2015,06,26,04,28,16.60
2015,06,26,04,29,16.60
2015,06,26,04,30,16.60
2015,06,26,04,31,16.60
2015,06,26,04,32,16.50
2015,06,26,04,33,16.50
2015,06,26,04,34,16.50
2015,06,26,04,35,16.50
2015,06,26,04,36,16.40
2015,06,26,04,37,16.40
2015,06,26,04,38,16.40
2015,06,26,04,39,16.30
2015,06,26,04,40,16.30
2015,06,26,04,41,16.30
2015,06,26,04,42,16.30
2015,06,26,04,43,16.20
2015,06,26,04,44,16.20
2015,06,26,04,45,16.20
2015,06,26,04,46,16.20
2015,06,26,04,47,16.20
2015,06,26,04,48,16.20
2015,06,26,04,49,16.20
2015,06,26,04,50,16.20
2015,06,26,04,51,16.30
2015,06,26,04,52,16.40
2015,06,26,04,53,16.40
2015,06,26,04,54,16.40
2015,06,26,04,55,16.40
2015,06,26,04,56,16.50
2015,06,26,04,57,16.50
2015,06,26,04,58,16.50
2015,06,26,04,59,16.60
2015,06,26,05,00,16.70
2015,06,26,05,01,16.80
2015,06,26,05,02,16.80
2015,06,26,05,03,16.90
2015,06,26,05,04,16.90
2015,06,26,05,05,17.00
2015,06,26,05,06,17.00
2015,06,26,05,07,17.10
2015,06,26,05,08,17.10
2015,06,26,05,09,17.10
2015,06,26,05,10,17.20
2015,06,26,05,11,17.20
2015,06,26,05,12,17.20
2015,06,26,05,13,17.20
2015,06,26,05,14,17.20
2015,06,26,05,15,17.20
2015,06,26,05,16,17.20
2015,06,26,05,17,17.20
2015,06,26,05,18,17.20
2015,06,26,05,19,17.10
2015,06,26,05,20,17.10
2015,06,26,05,21,17.10
2015,06,26,05,22,17.10
2015,06,26,05,23,17.10
2015,06,26,05,24,17.00
2015,06,26,05,25,17.00
2015,06,26,05,26,17.00
2015,06,26,05,27,17.00
2015,06,26,05,28,16.90
2015,06,26,05,29,16.90
2015,06,26,05,30,16.90
2015,06,26,05,31,16.90
2015,06,26,05,32,16.90
2015,06,26,05,33,16.80
2015,06,26,05,34,16.80
2015,06,26,05,35,16.80
2015,06,26,05,36,16.80
2015,06,26,05,37,16.70
2015,06,26,05,38,16.70
2015,06,26,05,39,16.60
2015,06,26,05,40,16.50
2015,06,26,05,41,16.50
2015,06,26,05,42,16.40
2015,06,26,05,43,16.40
2015,06,26,05,44,16.30
2015,06,26,05,45,16.30
2015,06,26,05,46,16.30
2015,06,26,05,47,16.20
2015,06,26,05,48,16.20
2015,06,26,05,49,16.20
2015,06,26,05,50,16.20
2015,06,26,05,51,16.10
2015,06,26,05,52,16.10
2015,06,26,05,53,16.10
2015,06,26,05,54,16.10
2015,06,26,05,55,16.00
2015,06,26,05,56,16.00
2015,06,26,05,57,16.00
2015,06,26,05,58,16.00
2015,06,26,05,59,15.90
2015,06,26,06,00,15.90
2015,06,26,06,01,15.90
2015,06,26,06,02,15.90
2015,06,26,06,03,16.00
2015,06,26,06,04,16.00
2015,06,26,06,05,16.10
2015,06,26,06,06,16.20
2015,06,26,06,07,16.20
2015,06,26,06,08,16.30
2015,06,26,06,09,16.40
2015,06,26,06,10,16.60
2015,06,26,06,11,16.70
2015,06,26,06,12,16.80
2015,06,26,06,13,16.90
2015,06,26,06,14,17.00
2015,06,26,06,15,17.10
2015,06,26,06,16,17.10
2015,06,26,06,17,17.20
2015,06,26,06,18,17.20
2015,06,26,06,19,17.30
2015,06,26,06,20,17.30
2015,06,26,06,21,17.30
2015,06,26,06,22,17.40
2015,06,26,06,23,17.40
2015,06,26,06,24,17.40
2015,06,26,06,25,17.40
2015,06,26,06,26,17.50
2015,06,26,06,27,17.50
2015,06,26,06,28,17.50
2015,06,26,06,29,17.60
2015,06,26,06,30,17.60
2015,06,26,06,31,17.60
2015,06,26,06,32,17.70
2015,06,26,06,33,17.70
2015,06,26,06,34,17.70
2015,06,26,06,35,17.70
2015,06,26,06,36,17.80
2015,06,26,06,37,17.80
2015,06,26,06,38,17.80
2015,06,26,06,39,17.80
2015,06,26,06,40,17.80
2015,06,26,06,41,17.80
2015,06,26,06,42,17.80
2015,06,26,06,43,17.80
2015,06,26,06,44,17.80
2015,06,26,06,45,17.80
2015,06,26,06,46,17.80
2015,06,26,06,47,17.80
2015,06,26,06,48,17.80
2015,06,26,06,49,17.80
2015,06,26,06,50,17.80
2015,06,26,06,51,17.80
2015,06,26,06,52,17.80
2015,06,26,06,53,17.80
2015,06,26,06,54,17.90
2015,06,26,06,55,17.90
2015,06,26,06,56,17.90
2015,06,26,06,57,17.90
2015,06,26,06,58,17.90
2015,06,26,06,59,17.90
2015,06,26,07,00,17.90
2015,06,26,07,01,17.90
2015,06,26,07,02,18.00
2015,06,26,07,03,18.00
2015,06,26,07,04,18.00
2015,06,26,07,05,18.10
2015,06,26,07,06,18.10
2015,06,26,07,07,18.20
2015,06,26,07,08,18.20
2015,06,26,07,09,18.20
2015,06,26,07,10,18.20
2015,06,26,07,11,18.30
2015,06,26,07,12,18.30
2015,06,26,07,13,18.30
2015,06,26,07,14,18.30
2015,06,26,07,15,18.30
2015,06,26,07,16,18.40
2015,06,26,07,17,18.40
2015,06,26,07,18,18.40
2015,06,26,07,19,18.40
2015,06,26,07,20,18.40
2015,06,26,07,21,18.40
2015,06,26,07,22,18.50
2015,06,26,07,23,18.50
2015,06,26,07,24,18.50
2015,06,26,07,25,18.60
2015,06,26,07,26,18.60
2015,06,26,07,27,18.60
2015,06,26,07,28,18.70
2015,06,26,07,29,18.70
2015,06,26,07,30,18.70
2015,06,26,07,31,18.70
2015,06,26,07,32,18.80
2015,06,26,07,33,18.80
2015,06,26,07,34,18.80
2015,06,26,07,35,18.80
2015,06,26,07,36,18.90
2015,06,26,07,37,18.90
2015,06,26,07,38,18.90
2015,06,26,07,39,19.00
2015,06,26,07,40,19.00
2015,06,26,07,41,19.10
2015,06,26,07,42,19.10
2015,06,26,07,43,19.10
2015,06,26,07,44,19.20
2015,06,26,07,45,19.30
2015,06,26,07,46,19.30
2015,06,26,07,47,19.40
2015,06,26,07,48,19.50
2015,06,26,07,49,19.50
2015,06,26,07,50,19.60
2015,06,26,07,51,19.60
2015,06,26,07,52,19.50
2015,06,26,07,53,19.50
2015,06,26,07,54,19.40
2015,06,26,07,55,19.50
2015,06,26,07,56,19.50
2015,06,26,07,57,19.60
2015,06,26,07,58,19.60
2015,06,26,07,59,19.60
2015,06,26,08,00,19.70
2015,06,26,08,01,19.80
2015,06,26,08,02,19.80
2015,06,26,08,03,19.80
2015,06,26,08,04,19.90
2015,06,26,08,05,20.00
2015,06,26,08,06,20.00
2015,06,26,08,07,20.10
2015,06,26,08,08,20.30
2015,06,26,08,09,20.40
2015,06,26,08,10,20.50
2015,06,26,08,11,20.60
2015,06,26,08,12,20.60
2015,06,26,08,13,20.50
2015,06,26,08,14,20.50
2015,06,26,08,15,20.50
2015,06,26,08,16,20.50
2015,06,26,08,17,20.50
2015,06,26,08,18,20.50
2015,06,26,08,19,20.40
2015,06,26,08,20,20.30
2015,06,26,08,21,20.30
2015,06,26,08,22,20.30
2015,06,26,08,23,20.20
2015,06,26,08,24,20.10
2015,06,26,08,25,20.10
2015,06,26,08,26,20.10
2015,06,26,08,27,20.10
2015,06,26,08,28,20.10
2015,06,26,08,29,20.10
2015,06,26,08,30,20.10
2015,06,26,08,31,20.10
2015,06,26,08,32,20.10
2015,06,26,08,33,20.10
2015,06,26,08,34,20.10
2015,06,26,08,35,20.10
2015,06,26,08,36,20.20
2015,06,26,08,37,20.20
2015,06,26,08,38,20.20
2015,06,26,08,39,20.30
2015,06,26,08,40,20.30
2015,06,26,08,41,20.40
2015,06,26,08,42,20.40
2015,06,26,08,43,20.40
2015,06,26,08,44,20.40
2015,06,26,08,45,20.40
2015,06,26,08,46,20.40
2015,06,26,08,47,20.40
2015,06,26,08,48,20.40
2015,06,26,08,49,20.40
2015,06,26,08,50,20.50
2015,06,26,08,51,20.50
2015,06,26,08,52,20.60
2015,06,26,08,53,20.70
2015,06,26,08,54,20.80
2015,06,26,08,55,20.90
2015,06,26,08,56,21.00
2015,06,26,08,57,21.10
2015,06,26,08,58,21.20
2015,06,26,08,59,21.20
2015,06,26,09,00,21.30
2015,06,26,09,01,21.20
2015,06,26,09,02,21.20
2015,06,26,09,03,21.20
2015,06,26,09,04,21.10
2015,06,26,09,05,21.10
2015,06,26,09,06,21.10
2015,06,26,09,07,21.10
2015,06,26,09,08,21.10
2015,06,26,09,09,21.10
2015,06,26,09,10,21.10
2015,06,26,09,11,21.10
2015,06,26,09,12,21.10
2015,06,26,09,13,21.10
2015,06,26,09,14,21.20
2015,06,26,09,15,21.20
2015,06,26,09,16,21.30
2015,06,26,09,17,21.30
2015,06,26,09,18,21.40
2015,06,26,09,19,21.40
2015,06,26,09,20,21.50
2015,06,26,09,21,21.50
2015,06,26,09,22,21.60
2015,06,26,09,23,21.60
2015,06,26,09,24,21.70
2015,06,26,09,25,21.70
2015,06,26,09,26,21.70
2015,06,26,09,27,21.70
2015,06,26,09,28,21.80
2015,06,26,09,29,21.90
2015,06,26,09,30,22.00
2015,06,26,09,31,22.10
2015,06,26,09,32,22.20
2015,06,26,09,33,22.20
2015,06,26,09,34,22.10
2015,06,26,09,35,22.10
2015,06,26,09,36,22.10
2015,06,26,09,37,22.10
2015,06,26,09,38,22.10
2015,06,26,09,39,22.10
2015,06,26,09,40,22.00
2015,06,26,09,41,21.90
2015,06,26,09,42,21.80
2015,06,26,09,43,21.80
2015,06,26,09,44,21.80
2015,06,26,09,45,21.80
2015,06,26,09,46,21.90
2015,06,26,09,47,21.90
2015,06,26,09,48,21.90
2015,06,26,09,49,21.90
2015,06,26,09,50,21.80
2015,06,26,09,51,21.80
2015,06,26,09,52,21.80
2015,06,26,09,53,21.90
2015,06,26,09,54,22.00
2015,06,26,09,55,22.00
2015,06,26,09,56,22.10
2015,06,26,09,57,22.10
2015,06,26,09,58,22.10
2015,06,26,09,59,22.10
2015,06,26,10,00,22.10
2015,06,26,10,01,22.10
2015,06,26,10,02,22.10
2015,06,26,10,03,22.10
2015,06,26,10,04,22.10
2015,06,26,10,05,22.20
2015,06,26,10,06,22.30
2015,06,26,10,07,22.40
2015,06,26,10,08,22.50
2015,06,26,10,09,22.70
2015,06,26,10,10,22.80
2015,06,26,10,11,22.70
2015,06,26,10,12,22.70
2015,06,26,10,13,22.60
2015,06,26,10,14,22.60
2015,06,26,10,15,22.50
2015,06,26,10,16,22.50
2015,06,26,10,17,22.40
2015,06,26,10,18,22.40
2015,06,26,10,19,22.30
2015,06,26,10,20,22.30
2015,06,26,10,21,22.30
2015,06,26,10,22,22.30
2015,06,26,10,23,22.30
2015,06,26,10,24,22.30
2015,06,26,10,25,22.20
2015,06,26,10,26,22.20
2015,06,26,10,27,22.20
2015,06,26,10,28,22.30
2015,06,26,10,29,22.30
2015,06,26,10,30,22.30
2015,06,26,10,31,22.30
2015,06,26,10,32,22.40
2015,06,26,10,33,22.40
2015,06,26,10,34,22.40
2015,06,26,10,35,22.50
2015,06,26,10,36,22.60
2015,06,26,10,37,22.70
2015,06,26,10,38,22.70
2015,06,26,10,39,22.80
2015,06,26,10,40,22.80
2015,06,26,10,41,22.80
2015,06,26,10,42,22.80
2015,06,26,10,43,22.80
2015,06,26,10,44,22.80
2015,06,26,10,45,22.90
2015,06,26,10,46,22.90
2015,06,26,10,47,23.00
2015,06,26,10,48,23.00
2015,06,26,10,49,23.00
2015,06,26,10,50,23.10
2015,06,26,10,51,23.10
2015,06,26,10,52,23.20
2015,06,26,10,53,23.30
2015,06,26,10,54,23.40
2015,06,26,10,55,23.40
2015,06,26,10,56,23.40
2015,06,26,10,57,23.30
2015,06,26,10,58,23.30
2015,06,26,10,59,23.30
2015,06,26,11,00,23.30
2015,06,26,11,01,23.40
2015,06,26,11,02,23.50
2015,06,26,11,03,23.60
2015,06,26,11,04,23.60
2015,06,26,11,05,23.60
2015,06,26,11,06,23.50
2015,06,26,11,07,23.40
2015,06,26,11,08,23.50
2015,06,26,11,09,23.50
2015,06,26,11,10,23.40
2015,06,26,11,11,23.40
2015,06,26,11,12,23.30
2015,06,26,11,13,23.30
2015,06,26,11,14,23.20
2015,06,26,11,15,23.20
2015,06,26,11,16,23.20
2015,06,26,11,17,23.20
2015,06,26,11,18,23.20
2015,06,26,11,19,23.20
2015,06,26,11,20,23.20
2015,06,26,11,21,23.20
2015,06,26,11,22,23.20
2015,06,26,11,23,23.20
2015,06,26,11,24,23.20
2015,06,26,11,25,23.30
2015,06,26,11,26,23.30
2015,06,26,11,27,23.30
2015,06,26,11,28,23.30
2015,06,26,11,29,23.20
2015,06,26,11,30,23.10
2015,06,26,11,31,23.10
2015,06,26,11,32,23.10
2015,06,26,11,33,23.10
2015,06,26,11,34,23.20
2015,06,26,11,35,23.20
2015,06,26,11,36,23.30
2015,06,26,11,37,23.20
2015,06,26,11,38,23.20
2015,06,26,11,39,23.20
2015,06,26,11,40,23.20
2015,06,26,11,41,23.20
2015,06,26,11,42,23.20
2015,06,26,11,43,23.30
2015,06,26,11,44,23.40
2015,06,26,11,45,23.50
2015,06,26,11,46,23.60
2015,06,26,11,47,23.60
2015,06,26,11,48,23.60
2015,06,26,11,49,23.60
2015,06,26,11,50,23.50
2015,06,26,11,51,23.60
2015,06,26,11,52,23.60
2015,06,26,11,53,23.60
2015,06,26,11,54,23.60
2015,06,26,11,55,23.50
2015,06,26,11,56,23.50
2015,06,26,11,57,23.50
2015,06,26,11,58,23.50
2015,06,26,11,59,23.50
2015,06,26,12,00,23.50
2015,06,26,12,01,23.50
2015,06,26,12,02,23.60
2015,06,26,12,03,23.60
2015,06,26,12,04,23.70
2015,06,26,12,05,23.80
2015,06,26,12,06,24.00
2015,06,26,12,07,24.20
2015,06,26,12,08,24.30
2015,06,26,12,09,24.40
2015,06,26,12,10,24.60
2015,06,26,12,11,24.60
2015,06,26,12,12,24.60
2015,06,26,12,13,24.60
2015,06,26,12,14,24.70
2015,06,26,12,15,24.60
2015,06,26,12,16,24.60
2015,06,26,12,17,24.70
2015,06,26,12,18,24.70
2015,06,26,12,19,24.60
2015,06,26,12,20,24.50
2015,06,26,12,21,24.50
2015,06,26,12,22,24.50
2015,06,26,12,23,24.50
2015,06,26,12,24,24.60
2015,06,26,12,25,24.70
2015,06,26,12,26,24.80
2015,06,26,12,27,24.80
2015,06,26,12,28,24.80
2015,06,26,12,29,24.80
2015,06,26,12,30,24.70
2015,06,26,12,31,24.70
2015,06,26,12,32,24.70
2015,06,26,12,33,24.70
2015,06,26,12,34,24.80
2015,06,26,12,35,24.90
2015,06,26,12,36,25.00
2015,06,26,12,37,25.20
2015,06,26,12,38,25.40
2015,06,26,12,39,25.40
2015,06,26,12,40,25.40
2015,06,26,12,41,25.40
2015,06,26,12,42,25.50
2015,06,26,12,43,25.50
2015,06,26,12,44,25.60
2015,06,26,12,45,25.70
2015,06,26,12,46,25.70
2015,06,26,12,47,25.70
2015,06,26,12,48,25.70
2015,06,26,12,49,25.60
2015,06,26,12,50,25.60
2015,06,26,12,51,25.50
2015,06,26,12,52,25.40
2015,06,26,12,53,25.20
2015,06,26,12,54,25.10
2015,06,26,12,55,25.10
2015,06,26,12,56,25.00
2015,06,26,12,57,25.00
2015,06,26,12,58,24.90
2015,06,26,12,59,24.90
2015,06,26,13,00,24.80
2015,06,26,13,01,24.80
2015,06,26,13,02,24.80
2015,06,26,13,03,24.80
2015,06,26,13,04,24.90
2015,06,26,13,05,24.90
2015,06,26,13,06,24.90
2015,06,26,13,07,24.90
2015,06,26,13,08,24.90
2015,06,26,13,09,25.00
2015,06,26,13,10,25.10
2015,06,26,13,11,25.10
2015,06,26,13,12,25.10
2015,06,26,13,13,25.10
2015,06,26,13,14,25.10
2015,06,26,13,15,25.10
2015,06,26,13,16,25.10
2015,06,26,13,17,25.20
2015,06,26,13,18,25.20
2015,06,26,13,19,25.20
2015,06,26,13,20,25.30
2015,06,26,13,21,25.40
2015,06,26,13,22,25.50
2015,06,26,13,23,25.60
2015,06,26,13,24,25.70
2015,06,26,13,25,25.70
2015,06,26,13,26,25.70
2015,06,26,13,27,25.70
2015,06,26,13,28,25.70
2015,06,26,13,29,25.70
2015,06,26,13,30,25.70
2015,06,26,13,31,25.80
2015,06,26,13,32,25.90
2015,06,26,13,33,25.90
2015,06,26,13,34,26.00
2015,06,26,13,35,26.10
2015,06,26,13,36,26.20
2015,06,26,13,37,26.30
2015,06,26,13,38,26.40
2015,06,26,13,39,26.40
2015,06,26,13,40,26.30
2015,06,26,13,41,26.30
2015,06,26,13,42,26.20
2015,06,26,13,43,26.30
2015,06,26,13,44,26.30
2015,06,26,13,45,26.30
2015,06,26,13,46,26.40
2015,06,26,13,47,26.40
2015,06,26,13,48,26.40
2015,06,26,13,49,26.40
2015,06,26,13,50,26.50
2015,06,26,13,51,26.50
2015,06,26,13,52,26.60
2015,06,26,13,53,26.70
2015,06,26,13,54,26.70
2015,06,26,13,55,26.70
2015,06,26,13,56,26.80
2015,06,26,13,57,26.80
2015,06,26,13,58,26.80
2015,06,26,13,59,26.80
2015,06,26,14,00,26.70
2015,06,26,14,01,26.70
2015,06,26,14,02,26.80
2015,06,26,14,03,26.90
2015,06,26,14,04,27.00
2015,06,26,14,05,27.10
2015,06,26,14,06,27.10
2015,06,26,14,07,27.20
2015,06,26,14,08,27.30
2015,06,26,14,09,27.30
2015,06,26,14,10,27.40
2015,06,26,14,11,27.50
2015,06,26,14,12,27.70
2015,06,26,14,13,27.80
2015,06,26,14,14,27.90
2015,06,26,14,15,27.90
2015,06,26,14,16,28.00
2015,06,26,14,17,28.00
2015,06,26,14,18,27.90
2015,06,26,14,19,27.90
2015,06,26,14,20,27.80
2015,06,26,14,21,27.80
2015,06,26,14,22,27.80
2015,06,26,14,23,27.80
2015,06,26,14,24,27.80
2015,06,26,14,25,27.80
2015,06,26,14,26,27.80
2015,06,26,14,27,27.90
2015,06,26,14,28,27.80
2015,06,26,14,29,27.70
2015,06,26,14,30,27.70
2015,06,26,14,31,27.60
2015,06,26,14,32,27.60
2015,06,26,14,33,27.70
2015,06,26,14,34,27.80
2015,06,26,14,35,27.80
2015,06,26,14,36,27.90
2015,06,26,14,37,27.90
2015,06,26,14,38,27.90
2015,06,26,14,39,27.90
2015,06,26,14,40,28.00
2015,06,26,14,41,28.10
2015,06,26,14,42,28.20
2015,06,26,14,43,28.20
2015,06,26,14,44,28.20
2015,06,26,14,45,28.20
2015,06,26,14,46,28.20
2015,06,26,14,47,28.10
2015,06,26,14,48,28.10
2015,06,26,14,49,28.10
2015,06,26,14,50,28.10
2015,06,26,14,51,28.10
2015,06,26,14,52,28.00
2015,06,26,14,53,28.00
2015,06,26,14,54,27.90
2015,06,26,14,55,27.90
2015,06,26,14,56,27.80
2015,06,26,14,57,27.70
2015,06,26,14,58,27.70
2015,06,26,14,59,27.70
2015,06,26,15,00,27.90
2015,06,26,15,01,27.90
2015,06,26,15,02,28.00
2015,06,26,15,03,28.10
2015,06,26,15,04,28.20
2015,06,26,15,05,28.20
2015,06,26,15,06,28.20
2015,06,26,15,07,28.20
2015,06,26,15,08,28.20
2015,06,26,15,09,28.10
2015,06,26,15,10,28.10
2015,06,26,15,11,28.00
2015,06,26,15,12,27.90
2015,06,26,15,13,27.90
2015,06,26,15,14,27.80
2015,06,26,15,15,27.80
2015,06,26,15,16,27.70
2015,06,26,15,17,27.60
2015,06,26,15,18,27.50
2015,06,26,15,19,27.40
2015,06,26,15,20,27.30
2015,06,26,15,21,27.20
2015,06,26,15,22,27.10
2015,06,26,15,23,27.00
2015,06,26,15,24,26.90
2015,06,26,15,25,26.80
2015,06,26,15,26,26.80
2015,06,26,15,27,26.80
2015,06,26,15,28,26.80
2015,06,26,15,29,26.80
2015,06,26,15,30,26.80
2015,06,26,15,31,26.80
2015,06,26,15,32,26.80
2015,06,26,15,33,26.80
2015,06,26,15,34,26.80
2015,06,26,15,35,26.80
2015,06,26,15,36,26.90
2015,06,26,15,37,26.90
2015,06,26,15,38,26.90
2015,06,26,15,39,26.90
2015,06,26,15,40,27.00
2015,06,26,15,41,27.00
2015,06,26,15,42,27.00
2015,06,26,15,43,27.10
2015,06,26,15,44,27.10
2015,06,26,15,45,27.10
2015,06,26,15,46,27.10
2015,06,26,15,47,27.10
2015,06,26,15,48,27.10
2015,06,26,15,49,27.10
2015,06,26,15,50,27.10
2015,06,26,15,51,27.10
2015,06,26,15,52,27.20
2015,06,26,15,53,27.30
2015,06,26,15,54,27.40
2015,06,26,15,55,27.50
2015,06,26,15,56,27.60
2015,06,26,15,57,27.80
2015,06,26,15,58,27.90
2015,06,26,15,59,28.10
2015,06,26,16,00,28.30
2015,06,26,16,01,28.30
2015,06,26,16,02,28.40
2015,06,26,16,03,28.40
2015,06,26,16,04,28.30
2015,06,26,16,05,28.40
2015,06,26,16,06,28.50
2015,06,26,16,07,28.50
2015,06,26,16,08,28.60
2015,06,26,16,09,28.70
2015,06,26,16,10,28.80
2015,06,26,16,11,28.90
2015,06,26,16,12,29.00
2015,06,26,16,13,29.00
2015,06,26,16,14,29.10
2015,06,26,16,15,29.10
2015,06,26,16,16,29.10
2015,06,26,16,17,29.10
2015,06,26,16,18,29.00
2015,06,26,16,19,29.10
2015,06,26,16,20,29.10
2015,06,26,16,21,29.20
2015,06,26,16,22,29.30
2015,06,26,16,23,29.40
2015,06,26,16,24,29.40
2015,06,26,16,25,29.40
2015,06,26,16,26,29.30
2015,06,26,16,27,29.30
2015,06,26,16,28,29.20
2015,06,26,16,29,29.10
2015,06,26,16,30,29.10
2015,06,26,16,31,29.00
2015,06,26,16,32,29.00
2015,06,26,16,33,29.00
2015,06,26,16,34,29.00
2015,06,26,16,35,29.10
2015,06,26,16,36,29.00
2015,06,26,16,37,29.00
2015,06,26,16,38,29.00
2015,06,26,16,39,29.00
2015,06,26,16,40,29.00
2015,06,26,16,41,29.00
2015,06,26,16,42,29.00
2015,06,26,16,43,29.00
2015,06,26,16,44,29.00
2015,06,26,16,45,29.00
2015,06,26,16,46,29.10
2015,06,26,16,47,29.20
2015,06,26,16,48,29.30
2015,06,26,16,49,29.40
2015,06,26,16,50,29.40
2015,06,26,16,51,29.40
2015,06,26,16,52,29.40
2015,06,26,16,53,29.50
2015,06,26,16,54,29.50
2015,06,26,16,55,29.50
2015,06,26,16,56,29.50
2015,06,26,16,57,29.40
2015,06,26,16,58,29.30
2015,06,26,16,59,29.20
2015,06,26,17,00,29.20
2015,06,26,17,01,29.30
2015,06,26,17,02,29.30
2015,06,26,17,03,29.30
2015,06,26,17,04,29.30
2015,06,26,17,05,29.30
2015,06,26,17,06,29.30
2015,06,26,17,07,29.40
2015,06,26,17,08,29.40
2015,06,26,17,09,29.50
2015,06,26,17,10,29.50
2015,06,26,17,11,29.50
2015,06,26,17,12,29.60
2015,06,26,17,13,29.60
2015,06,26,17,14,29.60
2015,06,26,17,15,29.60
2015,06,26,17,16,29.60
2015,06,26,17,17,29.70
2015,06,26,17,18,29.70
2015,06,26,17,19,29.70